Regional Weather Roundup
Issued by NWS Wakefield, VA

Home | Current Version | Previous Version | Graphics & Text | Print | Product List | Glossary On
Versions: 1 2 3 4 5 6 7 8 9 10 11 12 13 14 15 16 17 18 19 20 21 22 23 24 25 26 27 28 29 30 31 32 33 34 35 36 37 38 39 40 41 42 43 44 45 46 47 48 49 50
027
ASUS41 KAKQ 130815
RWRAKQ

REGIONAL WEATHER ROUNDUP
NATIONAL WEATHER SERVICE WAKEFIELD VA
300 AM EST SAT FEB 13 2016

Note: "fair" indicates few or no clouds below 12,000 feet with no
significant weather and/or obstructions to visibility. * = Denotes
station may not report precipitation (e.g., rain,snow,etc.),
thunder or fog.

VAZ042-051-052>054-056-130900-
NORTHERN VIRGINIA

CITY           SKY/WX    TMP DP  RH WIND       PRES   REMARKS
WASH NATIONAL  CLOUDY    28  11  48 W13G21    30.02R WCI  17
DULLES         MOCLDY    24  11  57 NW21G36   30.02R WCI   9
FORT BELVOIR   FAIR      26  15  64 NW23G31   30.02R WCI  11
QUANTICO       MOCLDY    26  17  68 N12       30.05R WCI  16
FREDERICKSBRG* CLOUDY    24  22  95 W6        30.03R
STAFFORD*      FAIR      22  17  84 W8        30.06R
WARRENTON      LGT SNOW  26  23  91 NW18G25   30.03R WCI  12
CULPEPER*      MOCLDY    26  13  58 W14       30.05R WCI  14
MANASSAS*      CLOUDY    23  21  93 NW21G35   30.04R WCI   8
LEESBURG*      CLOUDY    27  19  74 NW17G25   30.03R WCI  14
WINCHESTER     CLOUDY    23   9  54 W20G33    30.02R WCI   8
FRONT ROYAL*   CLOUDY    21   9  58 NW13G18   30.03R WCI   9
LURAY*         PTSUNNY   21   5  49 W24G31    30.04R WCI   4
$$

VAZ048-049-060>072-079>083-130900-
CENTRAL AND SOUTH CENTRAL VIRGINIA

CITY           SKY/WX    TMP DP  RH WIND       PRES   REMARKS
RICHMOND       MOCLDY    26  18  71 N8        30.02R
CHESTERFIELD*  FAIR      19   5  53 CALM      30.03R
PETERSBURG*    MOCLDY    21  19  91 CALM      30.03R
HANOVER        FAIR      25  18  74 CALM      30.03S
TAPPAHANNOCK*  FAIR      25  17  74 SW3       30.03S
QUINTON*       PTSUNNY   25  19  77 N3        30.03R
CHARLOTTSVILLE CLOUDY    27  12  53 N17G26    30.03R WCI  14
GORDONSVILLE*  CLOUDY    28   9  44 NW13G25   30.03R WCI  18
ORANGE*        CLOUDY    30  12  47 W16G28    30.04R WCI  19
LOUISA*        MOCLDY    27  16  63 W7        30.00R
BUMPASS*       FAIR      22  18  83 CALM      30.01S
FARMVILLE*     CLOUDY    32   7  34 W6G24     30.02R
CREWE*         CLOUDY    29  17  61 CALM      30.02R
FORT PICKETT*  FAIR      28  17  63 CALM      30.02R
CHASE CITY*    FAIR      31  10  41 NW12G21   30.02R WCI  22
CLARKSVILLE*   FAIR      32  19  59 NW3       30.03R
SOUTH HILL*    MOCLDY    28  19  70 W3        30.08S
LAWRENCEVILLE* PTSUNNY   29  20  69 NW3       30.02R
EMPORIA*       CLOUDY    30  21  69 SW5       30.05R
$$

VAZ088>098-130900-
SOUTHEAST VIRGINIA

CITY           SKY/WX    TMP DP  RH WIND       PRES   REMARKS
NORFOLK        FAIR      28  20  71 CALM      30.02R
VIRGINIA BEACH FAIR      25  19  78 SW8       30.01S
NORFOLK NAVAL  FAIR      28  22  78 NW9       30.04R
WEST POINT*    MOCLDY    27  20  76 NW5       30.06R
SALUDA*        CLOUDY    24  21  89 CALM      30.03R
NEWPORT NEWS   MOCLDY    25  22  88 NW5       30.03R
LANGLEY AFB    MOCLDY    25  21  85 NW5       30.02R
FORT EUSTIS    FAIR      25  24  98 VRB1      30.01R
WILLIAMSBURG*  FAIR      27  23  86 N3        30.04R
HR EXEC AP*    FAIR      16  12  86 CALM      30.04R
FRANKLIN*      CLOUDY    25  21  85 CALM      30.04R
US460-WAKEFLD  CLOUDY    21  17  84 CALM      30.03R
$$

VAZ020-022-025-037-045-130900-
WEST CENTRAL AND SOUTHWEST VIRGINIA

CITY           SKY/WX    TMP DP  RH WIND       PRES   REMARKS
STAUNTON*      FAIR      26   9  49 NW14G26   30.05R WCI  14
WAYNESBORO*    CLOUDY    22   3  43 NW17G29   30.00R WCI   7
HOT SPRINGS VA CLOUDY    10   1  67 NW22G44   29.81R WCI -10
LYNCHBURG      CLOUDY    28  10  46 VRB3      30.03R
DANVILLE       FAIR      33  12  41 W14G24    30.05R WCI  23
SOUTH BOSTON*  CLOUDY    31  16  52 N3        30.04R
MARTINSVILLE   FAIR      28   6  40 NW8       30.08R
ROANOKE        FLURRIES  25  12  58 NW21G32   30.05R WCI  11
BLACKSBURG     CLOUDY    22  13  69 NW8G23    30.03S
DUBLIN*        FLURRIES  23  13  65 NW16G37   30.03S WCI  10
MARION*        MOCLDY    21   9  60 W28       30.06R HAZE    WCI   3
HILLSVILLE*    FAIR      21   7  56 NW29G44   29.93R WCI   2
RICHLANDS*     LGT SNOW  18  10  71 NW12G21   30.09R WCI   6
WISE*          FLURRIES  21  10  63 W8G16     30.13S
ABINGDON*      LGT SNOW  24  13  62 NW13G23   30.14R WCI  12
$$

MDZ021>025-VAZ099-100-130900-
SOUTHERN MARYLAND AND THE DELMARVA PENINSULA

CITY           SKY/WX    TMP DP  RH WIND       PRES   REMARKS
PATUXENT RIVER PTCLDY    26  14  60 W12       30.00S WCI  16
BAY BRIDGE APT   N/A     27  16  63 W13       30.00R WCI  16
LEONARDTOWN    PTCLDY    25  14  63 W3        30.02R
DOVER          CLEAR     23  19  83 W6        29.96S
GEORGETOWN     CLEAR     21  16  81 CALM      29.98S
EASTON         CLEAR     27  16  62 NW10      30.03R WCI  17
CAMBRIDGE      CLEAR     28  14  54 NW8G16    29.99S
SALISBURY      CLEAR     20  17  88 W3        29.99S
OCEAN CITY     CLEAR     21  17  84 W3        29.99S
WALLOPS ISLAND FAIR      22  19  89 W3        30.00F
ACCOMACK*      FAIR      28  16  59 NW10      30.00S WCI  19
$$

NCZ012>017-030>032-130900-
NORTH CENTRAL AND EASTERN NORTH CAROLINA

CITY           SKY/WX    TMP DP  RH WIND       PRES   REMARKS
ROANOKE RAPIDS FAIR      28  23  80 CALM      30.04R
RALEIGH        PTCLDY    32  19  58 NW7       30.04S
ELIZABETH CITY MOCLDY    23  21  92 W5        30.03R
AHOSKIE*       NOT AVBL
EDENTON*       MOCLDY    32  26  78 NW6       30.03S
CURRITUCK*     PTCLDY    24  24  99 N3        30.03R
KILL DEVIL HLS MOCLDY    28  25  90 CALM      30.00S
MANTEO         MOCLDY    31  27  86 N5        30.02S
CAPE HATTERAS  CLOUDY    33  28  81 NW9       30.01F
TARBORO*       FAIR      27  25  90 W5        30.05R
GOLDSBORO      CLEAR     28  28 100 W5        30.04R
WASHINGTON     CLEAR     26  24  93 CALM      30.04R
GREENVILLE     CLEAR     28  27  93 CALM      30.06R
NEW BERN       MOCLDY    31  28  89 NW6       30.06R
WILMINGTON     MOCLDY    31  28  89 NW5       30.06R FOG
$$

VAZ048-130900-
ELSEWHERE

CITY           SKY/WX    TMP DP  RH WIND       PRES   REMARKS
HARRISBURG PA  MOCLDY    20  11  68 NW9       29.94R
BALTIMORE      PTCLDY    20  14  77 W7        29.99R
ANNAPOLIS      CLEAR     25  17  72 W5        29.99S
ANDREWS AFB    FAIR      26  10  51 W14G21    29.98S WCI  14
PHILADELPHIA   PTCLDY    22  15  75 W12       29.95F WCI  10
HENDERSON NC   MOCLDY    33  13  44 NW8       30.03R
GREENSBORO     PTCLDY    33  14  45 NW16G24   30.03R WCI  23
ROCKY MOUNT    PTCLDY    28  24  85 NW3       30.04S
$$

VAZ100-130900-
MARINE

STATION/POSITION TIME  TEMP    WIND        PRES    WAVE   SWELL
                       AIR SEA DIR/SP/G            HT/PER HT/PER
                 (UTC) (F)     (DEG/KT/KT) (MB)    (FT/S) (FT/S)
BRANDYWINE LGT   0700   26     300/ 20/ 28 1014.5F
CAPE MAY NJ      0700   26 38  290/ 18/ 22 1014.2F
LEWES DE         0700   23 38  270/  9/ 11 1014.9F
15NM E FENWICK I 0750   29 42              1014.4F   2/ 3
OCEAN-CITY-INLET 0700   25 40  290/  8/ 11 1014.6R
WACHAPREAGUE VA  0700   27 36   CALM  /  3 1015.9R
THOMAS POINT MD  0800   26 36  300/ 11/ 12 1016.5R
GOOSES REEF MD   0800   29 37  310/ 14/ 17 1017.0R   1
COVE POINT MD    0700   26     320/  7/ 11 1016.5F
SOLOMONS ISLAND  0700   28 39  290/  5/  6   N/A
BISHOPS HEAD MD  0700   28 32  310/  9/ 11 1014.9F
PINEY POINT MD   0700          350/ 11/ 13   N/A
POTOMAC MD       0800   29 38  340/ 10/ 12 1015.3R   1/ 2
CAMBRIDGE MD     0700   29 37  290/ 15/ 23 1014.8F
LEWISETTA VA     0700   28 38  290/  6/  7 1015.9F
RAPPAHANNOCK LGT 0700          310/ 15/ 18 1016.1F
STINGRAY PT      0800   30 39  320/ 12/ 16 1016.5R
YORK RVR RNG VA  0700   29     310/  8/  9 1015.5S
YORKTOWN VA      0700   28 40  260/  7/  8 1016.0F
JAMESTOWN VA     0800   28 41  340/  4/  6   N/A     0
DOMINION TERM VA 0700   29     320/ 10/ 12 1016.1F
KIPTOPEKE VA     0700      40  320/ 14/ 19   N/A
CHES BAY BRIDGE  0700   30 41  280/ 13/ 16 1015.6F
CAPE HENRY VA    0700   29     280/ 11/ 15   N/A
CHESAPEAKE LGHT  0700   31     300/ 20/ 23 1016.7S
WILLOUBY STN VA  0700   29     300/ 11/ 13 1016.9F
CAPE HENRY BUOY  0728      42                N/A     3/ 4
1ST LANDING BUOY 0800      41                N/A     2/ 3
CAPE CHARLES BUO 0726      42                N/A     2/ 4   2/14
OFFSHORE WE BUOY 0721      44                N/A     4/ 4   2/ 9
64NM E OF VA BCH 0750   35 48  320/ 21/ 29 1014.8R   5/ 5
DUCK PIER NC     0700   28     320/ 10/ 14 1015.7S
44100 DUCK FRF   0724      45                N/A     3/ 4
44056 DUCK FRF   0711      42                N/A     2/ 7
OREGON INLET NC  0700   31 40  320/  9/ 12 1016.1R
HATTERAS NC      0700   34 45  300/ 18/ 19 1015.8F
DIAMOND SHLS NC  0750   41 71  330/ 21/ 27 1015.6F   5/ 8   3/ 8
$$




USA.gov is the U.S. government's official web portal to all federal, state and local government web resources and services.